Date String (YYYY-MM-DD hh:mm:ss) UTC,Instrument flags,Ambient pressure (hPa),Sample flow (lpm),Bypass flow (lpm),Sample temperature (°C),Ambient temperature (°C),ASC tube jacket temperature (°C),LED temperature (°C),Box temperature (°C),Sample RH (%),Span deviation,Mass concentration (μg/m³),Mass concentration (μg/m³),Mass concentration (μg/m³)
DateTimeUTC,F1_M11,P_M11,Q1_M11,Q2_M11,T1_M11,T2_M11,T3_M11,T4_M11,T5_M11,U1_M11,ZSPAN_M11,X0_M11,X2_M11,X1_M11
2023-02-13 15:00:00,,0819.5,5.00,0.00,22.3,20.7,00.0,31.3,24.1,08.3,0000.0,0005.14,0002.43,0002.04
2023-02-13 15:01:00,,0819.5,5.00,0.00,22.3,20.6,00.0,31.3,24.0,08.9,0000.0,0005.31,0002.37,0001.98
2023-02-13 15:02:00,,0819.4,4.99,0.00,22.3,20.4,00.0,31.2,23.9,08.6,0000.0,0005.46,0002.34,0001.91
2023-02-13 15:03:00,,0819.3,4.99,0.00,22.2,20.4,00.0,31.2,23.9,07.6,0000.0,0005.43,0002.29,0001.84
2023-02-13 15:04:00,,0819.2,5.04,0.00,22.2,20.5,00.0,31.2,23.9,07.6,0000.0,0005.33,0002.21,0001.77
2023-02-13 15:05:00,,0819.2,4.99,0.00,22.2,20.6,00.0,31.2,24.0,07.4,0000.0,0005.33,0002.14,0001.69
2023-02-13 15:06:00,,0819.3,4.99,0.00,22.2,20.6,00.0,31.2,24.0,07.9,0000.0,0005.41,0002.13,0001.63
2023-02-13 15:07:00,,0819.3,5.01,0.00,22.3,20.6,00.0,31.2,24.0,08.2,0000.0,0005.04,0002.15,0001.59
2023-02-13 15:08:00,,0819.4,5.00,0.00,22.2,20.6,00.0,31.2,24.0,08.9,0000.0,0004.85,0002.11,0001.55
2023-02-13 15:09:00,,0819.2,4.98,0.00,22.2,20.6,00.0,31.2,24.0,08.8,0000.0,0004.36,0002.05,0001.51
2023-02-13 15:10:00,,0819.2,5.01,0.00,22.2,20.5,00.0,31.2,23.9,08.1,0000.0,0003.97,0002.05,0001.48
2023-02-13 15:11:00,,0819.0,5.01,0.00,22.2,20.5,00.0,31.1,24.0,07.6,0000.0,0003.92,0002.07,0001.44
2023-02-13 15:12:00,,0819.0,5.00,0.00,22.2,20.6,00.0,31.1,24.0,07.4,0000.0,0003.72,0002.04,0001.41
2023-02-13 15:13:00,,0819.1,4.97,0.00,22.3,21.9,00.0,31.1,24.2,07.4,0000.0,0003.43,0002.00,0001.38
2023-02-13 15:14:00,,0819.3,5.05,0.00,22.4,23.3,00.0,31.1,24.6,07.6,0000.0,0003.67,0001.91,0001.35
2023-02-13 15:15:00,,0819.3,5.00,0.00,22.6,23.3,00.0,31.2,24.7,08.5,0000.0,0004.10,0001.89,0001.33
2023-02-13 15:16:00,,0819.2,5.03,0.00,22.6,22.8,00.0,31.2,24.6,08.6,0000.0,0004.07,0001.89,0001.34
2023-02-13 15:17:00,,0819.3,4.98,0.00,22.6,22.3,00.0,31.3,24.6,08.9,0000.0,0004.11,0001.89,0001.35
2023-02-13 15:18:00,,0819.3,5.00,0.00,22.6,22.0,00.0,31.3,24.5,08.9,0000.0,0004.01,0001.85,0001.34
2023-02-13 15:19:00,,0819.1,5.01,0.00,22.7,21.9,00.0,31.3,24.5,08.4,0000.0,0004.01,0001.84,0001.33
2023-02-13 15:20:00,,0819.1,4.99,0.00,22.7,21.7,00.0,31.4,24.5,08.2,0000.0,0004.15,0001.88,0001.32
2023-02-13 15:21:00,,0819.1,4.98,0.00,22.7,21.6,00.0,31.4,24.5,08.6,0000.0,0004.41,0001.92,0001.31
2023-02-13 15:22:00,,0819.1,5.01,0.00,22.7,21.5,00.0,31.4,24.5,08.9,0000.0,0004.43,0001.87,0001.32
2023-02-13 15:23:00,,0819.2,5.02,0.00,22.7,21.5,00.0,31.4,24.6,09.0,0000.0,0004.78,0001.93,0001.35
2023-02-13 15:24:00,,0819.2,5.00,0.00,22.7,21.5,00.0,31.4,24.5,09.2,0000.0,0004.86,0001.95,0001.39
2023-02-13 15:25:00,,0819.1,4.98,0.00,22.7,21.5,00.0,31.4,24.5,09.2,0000.0,0004.62,0002.06,0001.43
2023-02-13 15:26:00,,0819.1,5.01,0.00,22.7,21.4,00.0,31.5,24.6,09.3,0000.0,0004.25,0002.11,0001.46
2023-02-13 15:27:00,,0819.1,4.97,0.00,22.7,21.4,00.0,31.5,24.6,09.3,0000.0,0004.26,0002.16,0001.50
2023-02-13 15:28:00,,0819.1,5.00,0.00,22.7,21.4,00.0,31.5,24.6,09.1,0000.0,0004.17,0002.20,0001.52
2023-02-13 15:29:00,,0819.1,5.01,0.00,22.7,21.3,00.0,31.5,24.5,08.9,0000.0,0004.33,0002.29,0001.56
2023-02-13 15:30:00,,0819.0,4.98,0.00,22.7,21.3,00.0,31.5,24.5,09.0,0000.0,0004.17,0002.27,0001.58
2023-02-13 15:31:00,,0819.0,5.01,0.00,22.7,21.3,00.0,31.5,24.5,08.8,0000.0,0004.58,0002.31,0001.60
2023-02-13 15:32:00,,0819.0,4.99,0.00,22.7,21.4,00.0,31.5,24.6,08.9,0000.0,0004.95,0002.32,0001.63
2023-02-13 15:33:00,,0819.0,5.00,0.00,22.7,21.4,00.0,31.5,24.6,09.3,0000.0,0005.10,0002.35,0001.65
2023-02-13 15:34:00,,0819.0,5.02,0.00,22.7,21.4,00.0,31.5,24.6,09.6,0000.0,0004.88,0002.38,0001.66
2023-02-13 15:35:00,,0819.0,5.00,0.00,22.7,21.4,00.0,31.5,24.6,09.5,0000.0,0005.14,0002.47,0001.67
2023-02-13 15:36:00,,0818.9,4.99,0.00,22.8,21.5,00.0,31.5,24.6,09.0,0000.0,0005.75,0002.41,0001.66
2023-02-13 15:37:00,,0818.9,5.01,0.00,22.8,21.5,00.0,31.5,24.6,09.1,0000.0,0005.79,0002.41,0001.64
2023-02-13 15:38:00,,0819.0,5.00,0.00,22.8,21.5,00.0,31.5,24.7,08.7,0000.0,0005.77,0002.41,0001.62
2023-02-13 15:39:00,,0818.9,5.01,0.00,22.8,21.5,00.0,31.5,24.7,08.4,0000.0,0005.99,0002.47,0001.61
2023-02-13 15:40:00,,0818.9,5.01,0.00,22.8,21.6,00.0,31.5,24.6,08.6,0000.0,0005.94,0002.44,0001.61
2023-02-13 15:41:00,,0818.9,5.01,0.00,22.8,21.6,00.0,31.5,24.7,08.9,0000.0,0006.21,0002.52,0001.62
2023-02-13 15:42:00,,0819.0,5.00,0.00,22.8,21.6,00.0,31.5,24.7,09.8,0000.0,0006.48,0002.51,0001.67
2023-02-13 15:43:00,,0819.0,5.01,0.00,22.8,21.6,00.0,31.6,24.7,09.6,0000.0,0006.58,0002.56,0001.72
2023-02-13 15:44:00,,0819.0,5.01,0.00,22.8,21.6,00.0,31.6,24.7,09.5,0000.0,0006.58,0002.64,0001.78
2023-02-13 15:45:00,,0819.0,4.99,0.00,22.8,21.6,00.0,31.6,24.7,09.4,0000.0,0007.46,0002.71,0001.84
2023-02-13 15:46:00,,0819.0,5.02,0.00,22.9,21.6,00.0,31.6,24.7,09.9,0000.0,0008.13,0002.78,0001.92
2023-02-13 15:47:00,,0818.9,4.99,0.00,22.8,21.5,00.0,31.6,24.7,10.0,0000.0,0007.79,0002.87,0002.01
2023-02-13 15:48:00,,0818.9,5.00,0.00,22.8,21.5,00.0,31.6,24.6,10.2,0000.0,0007.87,0002.98,0002.11
2023-02-13 15:49:00,,0818.9,4.99,0.00,22.8,21.4,00.0,31.6,24.6,10.5,0000.0,0007.96,0003.09,0002.22
2023-02-13 15:50:00,,0818.9,4.99,0.00,22.8,21.3,00.0,31.6,24.6,10.5,0000.0,0008.03,0003.16,0002.33
2023-02-13 15:51:00,,0818.9,4.99,0.00,22.8,21.3,00.0,31.6,24.6,10.3,0000.0,0008.23,0003.22,0002.44
2023-02-13 15:52:00,,0818.9,5.00,0.00,22.8,21.3,00.0,31.6,24.6,10.7,0000.0,0008.34,0003.31,0002.55
2023-02-13 15:53:00,,0819.0,4.99,0.00,22.8,21.3,00.0,31.6,24.6,10.7,0000.0,0008.55,0003.36,0002.64
2023-02-13 15:54:00,,0818.9,4.99,0.00,22.8,21.3,00.0,31.6,24.6,10.4,0000.0,0009.46,0003.39,0002.69
2023-02-13 15:55:00,,0819.0,5.00,0.00,22.8,21.3,00.0,31.6,24.6,10.0,0000.0,0009.58,0003.42,0002.73
2023-02-13 15:56:00,,0819.0,5.00,0.00,22.8,21.4,00.0,31.6,24.7,09.9,0000.0,0010.11,0003.44,0002.75
2023-02-13 15:57:00,,0819.0,5.00,0.00,22.8,21.4,00.0,31.6,24.7,10.3,0000.0,0010.27,0003.42,0002.75
2023-02-13 15:58:00,,0819.0,5.00,0.00,22.8,21.4,00.0,31.6,24.7,10.2,0000.0,0010.96,0003.44,0002.75
2023-02-13 15:59:00,,0818.9,4.99,0.00,22.8,21.4,00.0,31.6,24.7,09.8,0000.0,0011.22,0003.44,0002.75
